"read_dt","SO2 (ppb)","flags","PMT voltage (V)","lamp voltage (V)","lamp intensity (Hz)","internal temp (C)","react chamber temp (C)","sample flow (l/min)","pres (mmHg)","SO2 bkg (ppb)","SO2 coefficient"
2014-03-20 00:00:00,5557E-2,5C000490,-0724,1376,5884,027.7,045.3,0.143,754.4,01.17,0.508
2014-03-20 00:01:00,5542E-2,5C000490,-0724,1376,5847,027.7,045.3,0.143,754.4,01.17,0.508
2014-03-20 00:02:00,5507E-2,5C000490,-0724,1376,5877,027.7,045.3,0.143,754.4,01.17,0.508
2014-03-20 00:03:00,5513E-2,5C000490,-0724,1376,5853,027.7,045.3,0.143,754.4,01.17,0.508
2014-03-20 00:04:00,5549E-2,5C000490,-0724,1376,5835,027.7,045.3,0.143,754.5,01.17,0.508
2014-03-20 00:05:00,5544E-2,5C000490,-0724,1376,5844,027.7,045.3,0.144,754.5,01.17,0.508
2014-03-20 00:06:00,5556E-2,5C000490,-0724,1376,5763,027.7,045.3,0.144,754.5,01.17,0.508
2014-03-20 00:07:00,5500E-2,5C000490,-0724,1376,5784,027.7,045.3,0.144,754.5,01.17,0.508
2014-03-20 00:08:00,5502E-2,5C000490,-0724,1376,5738,027.7,045.3,0.143,754.6,01.17,0.508
2014-03-20 00:09:00,5503E-2,5C000490,-0724,1376,5788,027.7,045.3,0.144,754.4,01.17,0.508
2014-03-20 00:10:00,5550E-2,5C000490,-0724,1376,5807,027.7,045.3,0.144,754.4,01.17,0.508
2014-03-20 00:11:00,5501E-2,5C000490,-0724,1376,5705,027.7,045.3,0.143,754.5,01.17,0.508
2014-03-20 00:12:00,5520E-2,5C000490,-0724,1376,5838,027.7,045.3,0.144,754.4,01.17,0.508
2014-03-20 00:13:00,5546E-2,5C000490,-0724,1376,5780,027.7,045.3,0.144,754.4,01.17,0.508
2014-03-20 00:14:00,5572E-2,5C000490,-0724,1376,5783,027.7,045.3,0.143,754.3,01.17,0.508
2014-03-20 00:15:00,5551E-2,5C000490,-0724,1376,5765,027.7,045.3,0.144,754.4,01.17,0.508
2014-03-20 00:16:00,5567E-2,5C000490,-0724,1376,5742,027.7,045.3,0.144,754.4,01.17,0.508
2014-03-20 00:17:00,5484E-2,5C000490,-0724,1376,5814,027.7,045.3,0.144,754.3,01.17,0.508
2014-03-20 00:18:00,5533E-2,5C000490,-0724,1376,5747,027.7,045.3,0.144,754.3,01.17,0.508
2014-03-20 00:19:00,5483E-2,5C000490,-0724,1376,5769,027.7,045.3,0.144,754.4,01.17,0.508
2014-03-20 00:20:00,5593E-2,5C000490,-0724,1376,5689,027.7,045.3,0.144,754.4,01.17,0.508
2014-03-20 00:21:00,5515E-2,5C000490,-0724,1376,5740,027.7,045.3,0.144,754.3,01.17,0.508
2014-03-20 00:22:00,5574E-2,5C000490,-0724,1376,5706,027.7,045.3,0.144,754.4,01.17,0.508
2014-03-20 00:23:00,5602E-2,5C000490,-0724,1376,5564,027.7,045.3,0.144,754.5,01.17,0.508
2014-03-20 00:24:00,5507E-2,5C000490,-0724,1376,5685,027.7,045.3,0.144,754.5,01.17,0.508
2014-03-20 00:25:00,5539E-2,5C000490,-0724,1376,5633,027.7,045.3,0.144,754.4,01.17,0.508
2014-03-20 00:26:00,5515E-2,5C000490,-0724,1376,5680,027.7,045.3,0.144,754.4,01.17,0.508
2014-03-20 00:27:00,5524E-2,5C000490,-0724,1376,5593,027.7,045.3,0.144,754.4,01.17,0.508
2014-03-20 00:28:00,5535E-2,5C000490,-0724,1376,5662,027.7,045.3,0.144,754.5,01.17,0.508
2014-03-20 00:29:00,5542E-2,5C000490,-0724,1376,5598,027.7,045.3,0.144,754.6,01.17,0.508
2014-03-20 00:30:00,5527E-2,5C000490,-0724,1376,5593,027.7,045.3,0.144,754.5,01.17,0.508
2014-03-20 00:31:00,5538E-2,5C000490,-0724,1376,5574,027.7,045.3,0.144,754.5,01.17,0.508
2014-03-20 00:32:00,5493E-2,5C000490,-0724,1376,5634,027.7,045.3,0.144,754.5,01.17,0.508
2014-03-20 00:33:00,5534E-2,5C000490,-0724,1376,5525,027.7,045.3,0.144,754.6,01.17,0.508
2014-03-20 00:34:00,5565E-2,5C000490,-0724,1376,5572,027.7,045.3,0.144,754.6,01.17,0.508
2014-03-20 00:35:00,5475E-2,5C000490,-0724,1376,5938,027.7,045.3,0.144,754.6,01.17,0.508
2014-03-20 00:36:00,5550E-2,5C000490,-0724,1376,5840,027.7,045.3,0.144,754.6,01.17,0.508
2014-03-20 00:37:00,5562E-2,5C000490,-0724,1376,5878,027.7,045.3,0.144,754.5,01.17,0.508
2014-03-20 00:38:00,5507E-2,5C000490,-0724,1376,5888,027.7,045.3,0.144,754.5,01.17,0.508
2014-03-20 00:39:00,5544E-2,5C000490,-0724,1376,5772,027.7,045.3,0.144,754.5,01.17,0.508
2014-03-20 00:40:00,5537E-2,5C000490,-0724,1376,5843,027.7,045.3,0.144,754.5,01.17,0.508
2014-03-20 00:41:00,5547E-2,5C000490,-0724,1376,5813,027.7,045.3,0.144,754.5,01.17,0.508
2014-03-20 00:42:00,5548E-2,5C000490,-0724,1376,5773,027.7,045.3,0.144,754.5,01.17,0.508
2014-03-20 00:43:00,5536E-2,5C000490,-0724,1376,5799,027.7,045.3,0.144,754.5,01.17,0.508
2014-03-20 00:44:00,5520E-2,5C000490,-0724,1376,5809,027.7,045.3,0.144,754.5,01.17,0.508
2014-03-20 00:45:00,5546E-2,5C000490,-0724,1376,5777,027.7,045.3,0.144,754.5,01.17,0.508
2014-03-20 00:46:00,5535E-2,5C000490,-0724,1376,5781,027.7,045.3,0.144,754.5,01.17,0.508
2014-03-20 00:47:00,5470E-2,5C000490,-0724,1376,5663,027.7,045.3,0.144,754.6,01.17,0.508
2014-03-20 00:48:00,5523E-2,5C000490,-0724,1376,5796,027.7,045.3,0.144,754.6,01.17,0.508
2014-03-20 00:49:00,5548E-2,5C000490,-0724,1376,5757,027.7,045.3,0.144,754.5,01.17,0.508
2014-03-20 00:50:00,5504E-2,5C000490,-0724,1376,5727,027.7,045.3,0.144,754.5,01.17,0.508
2014-03-20 00:51:00,5530E-2,5C000490,-0724,1376,5740,027.7,045.3,0.144,754.6,01.17,0.508
2014-03-20 00:52:00,5491E-2,5C000490,-0724,1376,5671,027.7,045.3,0.144,754.6,01.17,0.508
2014-03-20 00:53:00,5491E-2,5C000490,-0724,1376,5712,027.7,045.3,0.144,754.5,01.17,0.508
2014-03-20 00:54:00,5493E-2,5C000490,-0724,1376,5687,027.7,045.3,0.144,754.5,01.17,0.508
2014-03-20 00:55:00,5548E-2,5C000490,-0724,1376,5675,027.7,045.3,0.144,754.6,01.17,0.508
2014-03-20 00:56:00,5480E-2,5C000490,-0724,1376,5624,027.7,045.3,0.144,754.6,01.17,0.508
2014-03-20 00:57:00,5558E-2,5C000490,-0724,1376,5714,027.7,045.3,0.144,754.6,01.17,0.508
2014-03-20 00:58:00,5524E-2,5C000490,-0724,1376,5636,027.7,045.3,0.144,754.6,01.17,0.508
2014-03-20 00:59:00,5556E-2,5C000490,-0724,1376,5689,027.7,045.3,0.144,754.6,01.17,0.508
2014-03-20 01:00:00,5520E-2,5C000490,-0724,1376,5609,027.7,045.3,0.144,754.7,01.17,0.508
2014-03-20 01:01:00,5549E-2,5C000490,-0724,1376,5653,027.7,045.3,0.144,754.7,01.17,0.508
2014-03-20 01:02:00,5539E-2,5C000490,-0724,1376,5544,027.7,045.3,0.144,754.7,01.17,0.508
2014-03-20 01:03:00,5585E-2,5C000490,-0724,1376,5682,027.7,045.3,0.144,754.8,01.17,0.508
2014-03-20 01:04:00,5583E-2,5C000490,-0724,1376,5671,027.7,045.3,0.144,754.8,01.17,0.508
2014-03-20 01:05:00,5606E-2,5C000490,-0724,1376,5653,027.6,045.3,0.144,754.8,01.17,0.508
2014-03-20 01:06:00,5514E-2,5C000490,-0724,1376,5689,027.7,045.3,0.144,754.8,01.17,0.508
2014-03-20 01:07:00,5581E-2,5C000490,-0724,1376,5648,027.7,045.3,0.144,754.8,01.17,0.508
2014-03-20 01:08:00,5571E-2,5C000490,-0724,1376,5640,027.6,045.3,0.144,754.8,01.17,0.508
2014-03-20 01:09:00,5567E-2,5C000490,-0724,1376,5680,027.6,045.3,0.144,754.8,01.17,0.508
2014-03-20 01:10:00,5550E-2,5C000490,-0724,1376,5685,027.7,045.3,0.144,754.9,01.17,0.508
2014-03-20 01:11:00,5525E-2,5C000490,-0724,1376,5660,027.7,045.3,0.144,754.9,01.17,0.508
2014-03-20 01:12:00,5541E-2,5C000490,-0724,1376,5692,027.7,045.3,0.144,754.9,01.17,0.508
2014-03-20 01:13:00,5534E-2,5C000490,-0724,1376,5626,027.7,045.3,0.144,754.9,01.17,0.508
2014-03-20 01:14:00,5566E-2,5C000490,-0724,1376,5596,027.7,045.3,0.144,754.9,01.17,0.508
2014-03-20 01:15:00,5585E-2,5C000490,-0724,1376,5638,027.7,045.3,0.144,754.9,01.17,0.508
2014-03-20 01:16:00,5577E-2,5C000490,-0724,1376,5656,027.7,045.3,0.144,754.9,01.17,0.508
2014-03-20 01:17:00,5612E-2,5C000490,-0724,1376,5626,027.6,045.3,0.144,754.9,01.17,0.508
2014-03-20 01:18:00,5595E-2,5C000490,-0724,1376,5648,027.6,045.3,0.144,754.9,01.17,0.508
2014-03-20 01:19:00,5576E-2,5C000490,-0724,1376,5673,027.6,045.3,0.144,754.9,01.17,0.508
2014-03-20 01:20:00,5583E-2,5C000490,-0724,1376,5726,027.6,045.3,0.144,754.9,01.17,0.508
2014-03-20 01:21:00,5148E-2,5C000490,-0724,1215,9335,027.6,045.3,0.144,754.9,01.17,0.508
2014-03-20 01:22:00,4456E-2,5C000410,-0724,1161,8970,027.6,045.3,0.144,755.0,01.17,0.508
2014-03-20 01:23:00,4343E-2,5C000410,-0724,1160,8985,027.6,045.3,0.144,755.0,01.17,0.508
2014-03-20 01:24:00,4371E-2,5C000410,-0724,1163,8909,027.6,045.3,0.144,754.9,01.17,0.508
2014-03-20 01:25:00,4384E-2,5C000410,-0724,1165,8792,027.7,045.3,0.144,754.8,01.17,0.508
2014-03-20 01:26:00,4362E-2,5C000410,-0724,1167,8804,027.6,045.3,0.144,754.9,01.17,0.508
2014-03-20 01:27:00,4342E-2,5C000410,-0724,1171,8829,027.6,045.3,0.144,754.9,01.17,0.508
2014-03-20 01:28:00,4401E-2,5C000410,-0724,1173,8833,027.6,045.3,0.144,754.9,01.17,0.508
2014-03-20 01:29:00,4381E-2,5C000410,-0724,1175,8795,027.7,045.3,0.144,754.9,01.17,0.508
2014-03-20 01:30:00,4524E-2,5C000490,-0724,1220,8265,027.6,045.3,0.144,754.9,01.17,0.508
2014-03-20 01:31:00,4684E-2,5C000490,-0724,1230,8238,027.6,045.3,0.144,754.9,01.17,0.508
2014-03-20 01:32:00,4723E-2,5C000490,-0724,1232,8207,027.6,045.3,0.144,755.0,01.17,0.508
2014-03-20 01:33:00,4682E-2,5C000490,-0724,1234,8249,027.6,045.3,0.144,754.9,01.17,0.508
2014-03-20 01:34:00,4738E-2,5C000490,-0724,1236,8096,027.6,045.3,0.144,754.9,01.17,0.508
2014-03-20 01:35:00,4683E-2,5C000490,-0724,1239,8180,027.6,045.3,0.144,754.9,01.17,0.508
2014-03-20 01:36:00,4761E-2,5C000490,-0724,1241,8097,027.6,045.3,0.144,754.9,01.17,0.508
2014-03-20 01:37:00,4697E-2,5C000490,-0724,1241,8183,027.6,045.3,0.144,754.8,01.17,0.508
2014-03-20 01:38:00,4764E-2,5C000490,-0724,1243,8117,027.6,045.3,0.144,754.8,01.17,0.508
2014-03-20 01:39:00,4729E-2,5C000490,-0724,1244,8121,027.6,045.3,0.144,755.0,01.17,0.508
2014-03-20 01:40:00,4791E-2,5C000490,-0724,1246,8180,027.6,045.3,0.144,754.9,01.17,0.508
2014-03-20 01:41:00,4732E-2,5C000490,-0724,1248,8094,027.6,045.3,0.144,754.8,01.17,0.508
2014-03-20 01:42:00,4696E-2,5C000490,-0724,1250,7975,027.6,045.3,0.144,755.0,01.17,0.508
2014-03-20 01:43:00,4755E-2,5C000490,-0724,1252,7996,027.6,045.3,0.144,754.9,01.17,0.508
2014-03-20 01:44:00,4918E-2,5C000490,-0724,1253,7986,027.6,045.3,0.144,754.9,01.17,0.508
2014-03-20 01:45:00,5539E-2,5C000490,-0724,1254,7977,027.6,045.3,0.144,754.9,01.17,0.508
2014-03-20 01:46:00,5584E-2,5C000490,-0724,1256,8018,027.6,045.3,0.144,754.9,01.17,0.508
2014-03-20 01:47:00,5568E-2,5C000490,-0724,1258,7968,027.6,045.3,0.144,754.9,01.17,0.508
2014-03-20 01:48:00,5558E-2,5C000490,-0724,1259,7972,027.6,045.3,0.144,754.8,01.17,0.508
2014-03-20 01:49:00,5566E-2,5C000490,-0724,1258,8037,027.6,045.3,0.144,754.9,01.17,0.508
2014-03-20 01:50:00,5618E-2,5C000490,-0724,1259,8005,027.6,045.3,0.144,754.9,01.17,0.508
2014-03-20 01:51:00,5582E-2,5C000490,-0724,1261,7862,027.6,045.3,0.144,755.0,01.17,0.508
2014-03-20 01:52:00,5588E-2,5C000490,-0724,1262,7933,027.6,045.3,0.144,754.9,01.17,0.508
2014-03-20 01:53:00,5586E-2,5C000490,-0724,1264,7886,027.6,045.3,0.144,754.9,01.17,0.508
2014-03-20 01:54:00,5589E-2,5C000490,-0724,1265,7831,027.6,045.3,0.144,754.9,01.17,0.508
2014-03-20 01:55:00,5602E-2,5C000490,-0724,1267,7894,027.6,045.3,0.144,754.9,01.17,0.508
2014-03-20 01:56:00,5593E-2,5C000490,-0724,1267,7938,027.6,045.3,0.144,755.0,01.17,0.508
2014-03-20 01:57:00,5593E-2,5C000490,-0724,1271,7840,027.6,045.3,0.144,755.0,01.17,0.508
2014-03-20 01:58:00,5625E-2,5C000490,-0724,1272,7710,027.6,045.3,0.144,755.0,01.17,0.508
2014-03-20 01:59:00,5639E-2,5C000490,-0724,1273,7801,027.6,045.3,0.144,754.9,01.17,0.508
2014-03-20 02:00:00,5653E-2,5C000490,-0724,1275,7830,027.6,045.3,0.144,755.0,01.17,0.508
2014-03-20 02:01:00,5642E-2,5C000490,-0724,1275,7784,027.5,045.3,0.144,755.0,01.17,0.508
2014-03-20 02:02:00,5585E-2,5C000490,-0724,1278,7801,027.6,045.3,0.144,755.0,01.17,0.508
2014-03-20 02:03:00,5680E-2,5C000490,-0724,1280,7717,027.5,045.3,0.144,755.0,01.17,0.508
2014-03-20 02:04:00,5618E-2,5C000490,-0724,1280,7802,027.5,045.3,0.144,755.0,01.17,0.508
2014-03-20 02:05:00,5641E-2,5C000490,-0724,1283,7807,027.6,045.3,0.144,755.1,01.16,0.508
2014-03-20 02:06:00,5621E-2,5C000490,-0724,1279,7707,027.5,045.3,0.144,755.0,01.17,0.508
2014-03-20 02:07:00,5611E-2,5C000490,-0724,1280,7832,027.5,045.3,0.144,755.0,01.17,0.508
2014-03-20 02:08:00,5655E-2,5C000490,-0724,1282,7648,027.6,045.3,0.144,755.0,01.17,0.508
2014-03-20 02:09:00,5669E-2,5C000490,-0724,1283,7777,027.5,045.3,0.144,755.0,01.17,0.508
2014-03-20 02:10:00,5654E-2,5C000490,-0724,1284,7783,027.5,045.3,0.144,755.0,01.17,0.508
2014-03-20 02:11:00,5665E-2,5C000490,-0724,1284,7751,027.5,045.3,0.144,755.0,01.17,0.508
2014-03-20 02:12:00,5667E-2,5C000490,-0724,1286,7733,027.5,045.3,0.144,755.0,01.17,0.508
2014-03-20 02:13:00,5631E-2,5C000490,-0724,1288,7694,027.5,045.3,0.144,755.0,01.17,0.508
2014-03-20 02:14:00,5646E-2,5C000490,-0724,1290,7572,027.5,045.3,0.144,755.0,01.17,0.508
2014-03-20 02:15:00,5773E-2,5C000490,-0724,1292,7701,027.5,045.3,0.144,755.0,01.17,0.508
2014-03-20 02:16:00,5690E-2,5C000490,-0724,1292,7550,027.5,045.3,0.144,755.1,01.16,0.508
2014-03-20 02:17:00,5715E-2,5C000490,-0724,1293,7631,027.5,045.3,0.145,755.1,01.16,0.508
2014-03-20 02:18:00,5662E-2,5C000490,-0724,1294,7544,027.5,045.3,0.144,755.1,01.16,0.508
2014-03-20 02:19:00,5688E-2,5C000490,-0724,1294,7722,027.5,045.3,0.145,755.2,01.16,0.508
2014-03-20 02:20:00,5711E-2,5C000490,-0724,1294,7620,027.5,045.3,0.145,755.2,01.16,0.508
2014-03-20 02:21:00,5743E-2,5C000490,-0724,1294,7637,027.5,045.3,0.145,755.1,01.16,0.508
2014-03-20 02:22:00,5715E-2,5C000490,-0724,1296,7573,027.5,045.3,0.145,755.1,01.16,0.508
2014-03-20 02:23:00,5716E-2,5C000490,-0724,1296,7571,027.5,045.3,0.145,755.2,01.16,0.508
2014-03-20 02:24:00,5709E-2,5C000490,-0724,1297,7580,027.5,045.3,0.145,755.2,01.16,0.508
2014-03-20 02:25:00,5735E-2,5C000490,-0724,1299,7493,027.5,045.3,0.144,755.2,01.16,0.508
2014-03-20 02:26:00,5724E-2,5C000490,-0724,1299,7594,027.5,045.3,0.144,755.2,01.16,0.508
2014-03-20 02:27:00,5750E-2,5C000490,-0724,1301,7504,027.5,045.3,0.145,755.2,01.16,0.508
2014-03-20 02:28:00,5771E-2,5C000490,-0724,1302,7534,027.5,045.3,0.145,755.2,01.16,0.508
2014-03-20 02:29:00,5760E-2,5C000490,-0724,1303,7513,027.5,045.3,0.145,755.2,01.16,0.508
2014-03-20 02:30:00,5699E-2,5C000490,-0724,1304,7464,027.4,045.3,0.145,755.3,01.16,0.508
2014-03-20 02:31:00,5729E-2,5C000490,-0724,1305,7527,027.5,045.3,0.145,755.3,01.16,0.508
2014-03-20 02:32:00,5706E-2,5C000490,-0724,1306,7546,027.5,045.3,0.145,755.3,01.16,0.508
2014-03-20 02:33:00,5777E-2,5C000490,-0724,1308,7520,027.5,045.3,0.145,755.4,01.16,0.508
2014-03-20 02:34:00,5679E-2,5C000490,-0724,1310,7403,027.5,045.3,0.145,755.4,01.16,0.508
2014-03-20 02:35:00,5739E-2,5C000490,-0724,1311,7498,027.5,045.3,0.145,755.4,01.16,0.508
2014-03-20 02:36:00,5774E-2,5C000490,-0724,1310,7554,027.5,045.3,0.145,755.4,01.16,0.508
2014-03-20 02:37:00,5751E-2,5C000490,-0724,1310,7519,027.5,045.3,0.145,755.5,01.16,0.508
2014-03-20 02:38:00,5771E-2,5C000490,-0724,1311,7372,027.5,045.3,0.145,755.6,01.16,0.508
2014-03-20 02:39:00,5808E-2,5C000490,-0724,1312,7460,027.5,045.3,0.145,755.5,01.16,0.508
2014-03-20 02:40:00,5693E-2,5C000490,-0724,1313,7397,027.4,045.3,0.145,755.5,01.16,0.508
2014-03-20 02:41:00,5755E-2,5C000490,-0724,1315,7421,027.4,045.3,0.145,755.6,01.16,0.508
2014-03-20 02:42:00,5769E-2,5C000490,-0724,1317,7354,027.5,045.3,0.145,755.6,01.16,0.508
2014-03-20 02:43:00,5789E-2,5C000490,-0724,1318,7395,027.4,045.3,0.145,755.6,01.16,0.508
2014-03-20 02:44:00,5761E-2,5C000490,-0724,1318,7420,027.4,045.3,0.145,755.6,01.16,0.508
2014-03-20 02:45:00,5807E-2,5C000490,-0724,1317,7414,027.4,045.3,0.145,755.6,01.16,0.508
2014-03-20 02:46:00,5759E-2,5C000490,-0724,1319,7420,027.4,045.3,0.145,755.6,01.16,0.508
2014-03-20 02:47:00,5851E-2,5C000490,-0724,1321,7342,027.4,045.3,0.145,755.6,01.16,0.508
2014-03-20 02:48:00,5758E-2,5C000490,-0724,1321,7352,027.4,045.3,0.145,755.6,01.16,0.508
2014-03-20 02:49:00,5761E-2,5C000490,-0724,1323,7237,027.4,045.3,0.145,755.7,01.16,0.508
2014-03-20 02:50:00,5843E-2,5C000490,-0724,1324,7311,027.4,045.3,0.145,755.6,01.16,0.508
2014-03-20 02:51:00,5787E-2,5C000490,-0724,1324,7365,027.4,045.3,0.145,755.6,01.16,0.508
2014-03-20 02:52:00,5778E-2,5C000490,-0724,1324,7392,027.4,045.3,0.145,755.6,01.16,0.508
2014-03-20 02:53:00,5849E-2,5C000490,-0724,1324,7371,027.4,045.3,0.145,755.6,01.16,0.508
2014-03-20 02:54:00,5821E-2,5C000490,-0724,1324,7255,027.4,045.3,0.145,755.7,01.16,0.508
2014-03-20 02:55:00,5857E-2,5C000490,-0724,1324,7320,027.4,045.3,0.145,755.7,01.16,0.508
2014-03-20 02:56:00,5821E-2,5C000490,-0724,1321,7400,027.4,045.3,0.145,755.7,01.16,0.508
2014-03-20 02:57:00,5818E-2,5C000490,-0724,1321,7296,027.4,045.3,0.145,755.7,01.16,0.508
2014-03-20 02:58:00,5834E-2,5C000490,-0724,1321,7274,027.4,045.3,0.145,755.7,01.16,0.508
2014-03-20 02:59:00,5817E-2,5C000490,-0724,1323,7393,027.4,045.3,0.145,755.7,01.16,0.508
2014-03-20 03:00:00,5835E-2,5C000490,-0724,1325,7304,027.4,045.3,0.145,755.7,01.16,0.508
2014-03-20 03:01:00,5881E-2,5C000490,-0724,1326,7696,027.4,045.3,0.145,755.7,01.16,0.508
2014-03-20 03:02:00,5764E-2,5C000490,-0724,1304,7556,027.4,045.3,0.145,755.8,01.16,0.508
2014-03-20 03:03:00,5794E-2,5C000490,-0724,1302,7561,027.4,045.3,0.145,755.7,01.16,0.508
2014-03-20 03:04:00,5743E-2,5C000490,-0724,1304,7508,027.4,045.3,0.145,755.7,01.16,0.508
2014-03-20 03:05:00,5763E-2,5C000490,-0724,1304,7554,027.4,045.3,0.145,755.7,01.16,0.508
2014-03-20 03:06:00,5729E-2,5C000490,-0724,1306,7374,027.4,045.3,0.145,755.7,01.16,0.508
2014-03-20 03:07:00,5747E-2,5C000490,-0724,1307,7498,027.4,045.3,0.145,755.8,01.16,0.508
2014-03-20 03:08:00,5778E-2,5C000490,-0724,1307,7418,027.4,045.3,0.145,755.9,01.16,0.508
2014-03-20 03:09:00,5763E-2,5C000490,-0724,1308,7443,027.4,045.3,0.145,755.8,01.16,0.508
2014-03-20 03:10:00,5817E-2,5C000490,-0724,1310,7449,027.4,045.3,0.145,755.8,01.16,0.508
2014-03-20 03:11:00,5797E-2,5C000490,-0724,1309,7479,027.4,045.3,0.145,755.8,01.16,0.508
2014-03-20 03:12:00,5735E-2,5C000490,-0724,1310,7501,027.4,045.3,0.145,755.9,01.16,0.508
2014-03-20 03:13:00,5746E-2,5C000490,-0724,1310,7458,027.4,045.3,0.145,755.9,01.16,0.508
2014-03-20 03:14:00,5802E-2,5C000490,-0724,1309,7492,027.4,045.3,0.145,755.8,01.16,0.508
2014-03-20 03:15:00,5833E-2,5C000490,-0724,1311,7454,027.4,045.3,0.145,755.8,01.16,0.508
2014-03-20 03:16:00,5842E-2,5C000490,-0724,1311,7403,027.4,045.3,0.145,755.8,01.16,0.508
2014-03-20 03:17:00,5772E-2,5C000490,-0724,1312,7381,027.4,045.3,0.145,755.8,01.16,0.508
2014-03-20 03:18:00,5800E-2,5C000490,-0724,1315,7355,027.4,045.3,0.145,755.9,01.16,0.508
2014-03-20 03:19:00,5781E-2,5C000490,-0724,1314,7497,027.4,045.3,0.145,755.8,01.16,0.508
2014-03-20 03:20:00,5792E-2,5C000490,-0724,1314,7492,027.4,045.3,0.145,755.8,01.16,0.508
2014-03-20 03:21:00,5764E-2,5C000490,-0724,1314,7385,027.4,045.3,0.145,755.9,01.16,0.508
2014-03-20 03:22:00,5826E-2,5C000490,-0724,1312,7366,027.4,045.3,0.145,755.9,01.16,0.508
2014-03-20 03:23:00,5793E-2,5C000490,-0724,1313,7402,027.4,045.3,0.145,755.8,01.16,0.508
2014-03-20 03:24:00,5804E-2,5C000490,-0724,1316,7468,027.4,045.3,0.145,755.8,01.16,0.508
2014-03-20 03:25:00,5826E-2,5C000490,-0724,1316,7340,027.4,045.3,0.145,755.9,01.16,0.508
2014-03-20 03:26:00,5792E-2,5C000490,-0724,1317,7441,027.4,045.3,0.145,755.9,01.16,0.508
2014-03-20 03:27:00,5862E-2,5C000490,-0724,1318,7399,027.4,045.3,0.145,755.9,01.16,0.508
2014-03-20 03:28:00,5830E-2,5C000490,-0724,1319,7369,027.4,045.3,0.145,755.9,01.16,0.508
2014-03-20 03:29:00,5786E-2,5C000490,-0724,1319,7296,027.4,045.3,0.145,755.9,01.16,0.508
2014-03-20 03:30:00,5853E-2,5C000490,-0724,1322,7245,027.4,045.3,0.145,755.9,01.16,0.508
2014-03-20 03:31:00,5846E-2,5C000490,-0724,1322,7327,027.4,045.3,0.145,756.0,01.16,0.508
2014-03-20 03:32:00,5809E-2,5C000490,-0724,1323,7363,027.4,045.3,0.145,756.0,01.16,0.508
2014-03-20 03:33:00,5760E-2,5C000490,-0724,1325,7346,027.4,045.3,0.145,755.9,01.16,0.508
2014-03-20 03:34:00,5848E-2,5C000490,-0724,1325,7357,027.4,045.3,0.145,755.9,01.16,0.508
2014-03-20 03:35:00,5823E-2,5C000490,-0724,1326,7232,027.4,045.3,0.145,755.9,01.16,0.508
2014-03-20 03:36:00,5840E-2,5C000490,-0724,1325,7390,027.4,045.3,0.145,756.0,01.16,0.508
2014-03-20 03:37:00,5837E-2,5C000490,-0724,1325,7292,027.4,045.3,0.145,755.9,01.16,0.508
2014-03-20 03:38:00,5810E-2,5C000490,-0724,1327,7240,027.4,045.3,0.145,756.0,01.16,0.508
2014-03-20 03:39:00,5791E-2,5C000490,-0724,1327,7314,027.4,045.3,0.145,756.0,01.16,0.508
2014-03-20 03:40:00,5863E-2,5C000490,-0724,1328,7282,027.4,045.3,0.145,755.9,01.16,0.508
2014-03-20 03:41:00,5858E-2,5C000490,-0724,1328,7319,027.4,045.3,0.145,756.0,01.16,0.508
2014-03-20 03:42:00,5806E-2,5C000490,-0724,1328,7308,027.4,045.3,0.145,756.0,01.16,0.508
2014-03-20 03:43:00,5885E-2,5C000490,-0724,1329,7268,027.4,045.3,0.145,756.0,01.16,0.508
2014-03-20 03:44:00,5843E-2,5C000490,-0724,1329,7164,027.4,045.3,0.145,756.0,01.16,0.508
2014-03-20 03:45:00,5873E-2,5C000490,-0724,1329,7272,027.4,045.3,0.145,756.0,01.16,0.508
2014-03-20 03:46:00,5869E-2,5C000490,-0724,1330,7325,027.4,045.3,0.145,756.1,01.16,0.508
2014-03-20 03:47:00,5835E-2,5C000490,-0724,1331,7263,027.4,045.3,0.145,756.2,01.16,0.508
2014-03-20 03:48:00,5888E-2,5C000490,-0724,1332,7278,027.4,045.3,0.145,756.1,01.16,0.508
2014-03-20 03:49:00,5825E-2,5C000490,-0724,1334,7196,027.4,045.3,0.145,756.1,01.16,0.508
2014-03-20 03:50:00,5898E-2,5C000490,-0724,1333,7206,027.4,045.3,0.145,756.1,01.16,0.508
2014-03-20 03:51:00,5846E-2,5C000490,-0724,1333,7234,027.4,045.3,0.145,756.3,01.16,0.508
2014-03-20 03:52:00,5881E-2,5C000490,-0724,1334,7189,027.4,045.3,0.145,756.3,01.16,0.508
2014-03-20 03:53:00,5891E-2,5C000490,-0724,1335,7282,027.4,045.3,0.145,756.3,01.16,0.508
2014-03-20 03:54:00,5895E-2,5C000490,-0724,1335,7241,027.4,045.3,0.145,756.3,01.16,0.508
2014-03-20 03:55:00,5863E-2,5C000490,-0724,1336,7172,027.4,045.3,0.145,756.3,01.16,0.508
2014-03-20 03:56:00,5893E-2,5C000490,-0724,1338,7146,027.4,045.3,0.145,756.3,01.16,0.508
2014-03-20 03:57:00,5944E-2,5C000490,-0724,1339,7108,027.4,045.3,0.145,756.3,01.16,0.508
2014-03-20 03:58:00,5896E-2,5C000490,-0724,1339,7187,027.4,045.3,0.145,756.3,01.16,0.508
2014-03-20 03:59:00,5905E-2,5C000490,-0724,1339,7229,027.4,045.3,0.145,756.3,01.16,0.508
2014-03-20 04:00:00,5853E-2,5C000490,-0724,1339,7184,027.4,045.3,0.145,756.3,01.16,0.508
2014-03-20 04:01:00,5916E-2,5C000490,-0724,1339,7201,027.4,045.3,0.145,756.4,01.16,0.508
2014-03-20 04:02:00,5877E-2,5C000490,-0724,1341,7136,027.4,045.3,0.145,756.3,01.16,0.508
2014-03-20 04:03:00,5877E-2,5C000490,-0724,1341,7195,027.4,045.3,0.145,756.4,01.16,0.508
2014-03-20 04:04:00,5884E-2,5C000490,-0724,1342,7135,027.3,045.3,0.145,756.4,01.16,0.508
2014-03-20 04:05:00,5955E-2,5C000490,-0724,1343,7167,027.3,045.3,0.145,756.4,01.16,0.508
2014-03-20 04:06:00,5941E-2,5C000490,-0724,1342,7202,027.3,045.3,0.145,756.4,01.16,0.508
2014-03-20 04:07:00,5963E-2,5C000490,-0724,1343,7167,027.3,045.3,0.145,756.5,01.16,0.508
2014-03-20 04:08:00,5891E-2,5C000490,-0724,1345,7209,027.3,045.3,0.145,756.4,01.16,0.508
2014-03-20 04:09:00,5962E-2,5C000490,-0724,1346,7087,027.3,045.3,0.145,756.4,01.16,0.508
2014-03-20 04:10:00,5927E-2,5C000490,-0724,1346,7116,027.3,045.3,0.145,756.4,01.16,0.508
2014-03-20 04:11:00,5940E-2,5C000490,-0724,1347,7086,027.4,045.3,0.145,756.5,01.16,0.508
2014-03-20 04:12:00,5932E-2,5C000490,-0724,1346,7100,027.3,045.3,0.145,756.5,01.16,0.508
2014-03-20 04:13:00,5942E-2,5C000490,-0724,1348,7116,027.3,045.3,0.145,756.5,01.16,0.508
2014-03-20 04:14:00,6074E-2,5C000490,-0724,1349,7113,027.3,045.3,0.145,756.5,01.16,0.508
2014-03-20 04:15:00,5992E-2,5C000490,-0724,1350,7042,027.3,045.3,0.145,756.5,01.16,0.508
2014-03-20 04:16:00,5942E-2,5C000490,-0724,1352,7058,027.3,045.3,0.145,756.6,01.16,0.508
2014-03-20 04:17:00,5930E-2,5C000490,-0724,1352,7082,027.3,045.3,0.145,756.5,01.16,0.508
2014-03-20 04:18:00,6005E-2,5C000490,-0724,1354,7024,027.3,045.3,0.145,756.6,01.16,0.508
2014-03-20 04:19:00,6016E-2,5C000490,-0724,1354,7030,027.3,045.3,0.145,756.6,01.16,0.508
2014-03-20 04:20:00,6008E-2,5C000490,-0724,1354,7043,027.3,045.3,0.145,756.6,01.16,0.508
2014-03-20 04:21:00,5973E-2,5C000490,-0724,1354,7020,027.4,045.3,0.145,756.6,01.16,0.508
2014-03-20 04:22:00,6037E-2,5C000490,-0724,1354,6950,027.3,045.3,0.145,756.7,01.16,0.508
2014-03-20 04:23:00,6087E-2,5C000490,-0724,1353,6951,027.3,045.3,0.145,756.7,01.16,0.508